Hazlehurst, GA

10:32 AM EST on December 09, 2019 (GMT -0500)
Hazlehurst

Weather History for KAZE - November, 2019

Change the Weather History Date:

Monday, November 18, 2019

  Actual Average Record
Temperature  
Mean Temperature 60 °F -  
Max Temperature 70 °F 66 °F 95 °F (2013)
Min Temperature 51 °F 47 °F 31 °F (2014)
Degree Days  
Heating Degree Days 4    
Growing Degree Days 10 (Base 50)    
Moisture  
Dew Point 46 °F    
Average Humidity 67    
Maximum Humidity 96    
Minimum Humidity 31    
Precipitation  
Precipitation 0.00 in - - ()
Sea Level Pressure  
Sea Level Pressure 29.83 in    
Wind  
Wind Speed 1 mph ()    
Max Wind Speed 10 mph    
Max Gust Speed -    
Visibility 10.0 miles    
Events Rain    
Averages and records for this station are not official NWS values.
T = Trace of Precipitation, MM = Missing Value Source: Averaged Metar Reports

Daily Weather History Graph

Daily Weather History Graph

Search for Another Location

Airport or City:

Astronomy

Nov. 18, 2019 Rise Set
Actual Time 7:01 AM EST 5:29 PM EST
Civil Twilight 6:35 AM EST 5:55 PM EST
Nautical Twilight 6:05 AM EST 6:25 PM EST
Astronomical Twilight 5:36 AM EST 6:54 PM EST
Moon 11:13 PM EST (11/18) 12:29 PM EST (11/18)
Length of Visible Light 11h 20m
Length of Day
10h 28m
Waning Gibbous, 63% of the Moon is Illuminated
Nov 18
Waning Gibbous
Nov 19
Last Quarter
Nov 26
New
Dec 4
First Quarter
Dec 12
Full

Hourly Weather History & Observations

Time (EST) Temp. Dew Point Humidity Pressure Visibility Wind Dir Wind Speed Gust Speed Precip Events Conditions
12:10 AM 52.7 °F 49.3 °F 88% 29.88 in 10.0 mi Calm Calm - N/A   Scattered Clouds
12:35 AM 52.9 °F 49.5 °F 88% 29.87 in 10.0 mi Calm Calm - N/A   Mostly Cloudy
12:55 AM 53.1 °F 49.3 °F 87% 29.87 in 10.0 mi Calm Calm - N/A   Mostly Cloudy
1:55 AM 53.8 °F 49.5 °F 85% 29.87 in 10.0 mi Calm Calm - N/A Rain Light Rain
2:15 AM 53.4 °F 50.2 °F 89% 29.87 in 10.0 mi Calm Calm - N/A   Mostly Cloudy
2:35 AM 52.9 °F 49.5 °F 88% 29.87 in 10.0 mi Calm Calm - N/A Rain Light Rain
2:55 AM 53.1 °F 49.5 °F 88% 29.86 in 10.0 mi Calm Calm - N/A   Overcast
3:15 AM 52.9 °F 51.3 °F 94% 29.85 in 10.0 mi Calm Calm - N/A   Overcast
3:35 AM 53.2 °F 51.8 °F 95% 29.85 in 10.0 mi Calm Calm - N/A   Overcast
4:15 AM 52.7 °F 51.3 °F 95% 29.85 in 10.0 mi Calm Calm - N/A   Mostly Cloudy
4:35 AM 52.9 °F 49.1 °F 87% 29.85 in 10.0 mi Calm Calm - N/A   Overcast
4:55 AM 52.9 °F 50.2 °F 91% 29.86 in 10.0 mi Calm Calm - N/A   Overcast
5:15 AM 53.4 °F 51.3 °F 92% 29.86 in 10.0 mi Calm Calm - N/A   Overcast
5:35 AM 53.1 °F 50.2 °F 90% 29.87 in 10.0 mi Calm Calm - N/A   Overcast
5:55 AM 52.9 °F 51.1 °F 94% 29.87 in 10.0 mi Calm Calm - N/A   Overcast
6:15 AM 52.9 °F 51.3 °F 94% 29.86 in 10.0 mi Calm Calm - N/A   Overcast
6:35 AM 53.1 °F 51.4 °F 94% 29.86 in 10.0 mi Calm Calm - N/A   Overcast
6:55 AM 52.5 °F 51.1 °F 95% 29.86 in 10.0 mi Calm Calm - N/A   Mostly Cloudy
7:15 AM 51.8 °F 50.4 °F 95% 29.86 in 10.0 mi Calm Calm - N/A   Scattered Clouds
7:35 AM 51.3 °F 50.0 °F 95% 29.86 in 10.0 mi Calm Calm - N/A   Clear
7:55 AM 52.7 °F 51.6 °F 96% 29.87 in 10.0 mi Calm Calm - N/A   Clear
8:15 AM 54.3 °F 50.2 °F 86% 29.87 in 10.0 mi Calm Calm - N/A   Clear
8:35 AM 55.8 °F 49.6 °F 80% 29.87 in 10.0 mi Calm Calm - N/A   Scattered Clouds
8:55 AM 56.5 °F 49.5 °F 77% 29.88 in 10.0 mi Calm Calm - N/A   Mostly Cloudy
9:15 AM 58.3 °F 49.5 °F 72% 29.88 in 10.0 mi Calm Calm - N/A   Scattered Clouds
9:55 AM 61.2 °F 49.3 °F 65% 29.88 in 10.0 mi Calm Calm - N/A   Clear
10:15 AM 62.6 °F 48.9 °F 61% 29.87 in 10.0 mi WSW 4.6 mph - N/A   Clear
10:35 AM 63.5 °F 48.4 °F 58% 29.87 in 10.0 mi West 4.6 mph - N/A   Clear
10:55 AM 64.6 °F 49.3 °F 58% 29.86 in 10.0 mi WSW 5.8 mph - N/A   Scattered Clouds
11:15 AM 64.8 °F 49.3 °F 57% 29.85 in 10.0 mi West 3.5 mph - N/A   Scattered Clouds
11:35 AM 66.0 °F 48.6 °F 53% 29.84 in 10.0 mi WNW 4.6 mph - N/A   Scattered Clouds
11:55 AM 67.5 °F 48.7 °F 51% 29.83 in 10.0 mi WSW 10.4 mph - N/A   Mostly Cloudy
12:15 PM 66.2 °F 47.7 °F 51% 29.82 in 10.0 mi West 5.8 mph - N/A   Mostly Cloudy
12:35 PM 68.7 °F 45.3 °F 43% 29.81 in 10.0 mi West 4.6 mph - N/A   Scattered Clouds
12:55 PM 68.5 °F 43.9 °F 41% 29.80 in 10.0 mi West 5.8 mph - N/A   Scattered Clouds
1:15 PM 68.5 °F 43.5 °F 40% 29.79 in 10.0 mi WNW 4.6 mph - N/A   Clear
1:35 PM 69.8 °F 42.8 °F 38% 29.78 in 10.0 mi West 3.5 mph - N/A   Clear
1:55 PM 70.2 °F 41.7 °F 36% 29.78 in 10.0 mi NW 3.5 mph - N/A   Clear
2:15 PM 69.8 °F 39.0 °F 33% 29.78 in 10.0 mi WSW 6.9 mph - N/A   Clear
2:35 PM 68.9 °F 39.7 °F 35% 29.77 in 10.0 mi West 4.6 mph - N/A   Clear
3:15 PM 68.5 °F 37.9 °F 33% 29.76 in 10.0 mi West 3.5 mph - N/A   Clear
3:35 PM 69.3 °F 37.4 °F 31% 29.76 in 10.0 mi WNW 5.8 mph - N/A   Clear
3:55 PM 67.8 °F 37.6 °F 33% 29.76 in 10.0 mi Calm Calm - N/A   Clear
4:15 PM 66.2 °F 36.5 °F 33% 29.76 in 10.0 mi Calm Calm - N/A   Clear
4:35 PM 65.3 °F 37.0 °F 35% 29.76 in 10.0 mi Calm Calm - N/A   Clear
4:50 PM 64.4 °F 38.5 °F 38% 29.77 in 10.0 mi Calm Calm - N/A   Clear
5:15 PM 61.7 °F 45.1 °F 55% 29.77 in 10.0 mi Calm Calm - N/A   Clear
5:35 PM 61.0 °F 45.0 °F 56% 29.78 in 10.0 mi Calm Calm - N/A   Clear
5:55 PM 59.0 °F 45.1 °F 60% 29.77 in 10.0 mi Calm Calm - N/A   Clear
6:15 PM 59.4 °F 44.1 °F 57% 29.78 in 10.0 mi Calm Calm - N/A   Clear
6:35 PM 57.7 °F 44.6 °F 62% 29.79 in 10.0 mi Calm Calm - N/A   Clear
6:55 PM 56.7 °F 46.9 °F 70% 29.79 in 10.0 mi Calm Calm - N/A   Clear
7:15 PM 56.7 °F 46.8 °F 69% 29.80 in 10.0 mi Calm Calm - N/A   Clear
7:55 PM 56.3 °F 45.9 °F 68% 29.80 in 10.0 mi Calm Calm - N/A   Clear
8:15 PM 56.3 °F 46.2 °F 69% 29.79 in 10.0 mi Calm Calm - N/A   Clear
8:35 PM 55.6 °F 47.5 °F 74% 29.81 in 10.0 mi Calm Calm - N/A   Clear
8:55 PM 57.4 °F 42.8 °F 58% 29.81 in 10.0 mi Calm Calm - N/A   Clear
9:15 PM 57.0 °F 41.9 °F 57% 29.81 in 10.0 mi Calm Calm - N/A   Clear
9:35 PM 56.7 °F 41.7 °F 57% 29.80 in 10.0 mi Calm Calm - N/A   Clear
9:55 PM 54.5 °F 44.6 °F 69% 29.81 in 10.0 mi Calm Calm - N/A   Clear
10:15 PM 56.1 °F 39.7 °F 54% 29.80 in 10.0 mi Calm Calm - N/A   Clear
10:35 PM 55.0 °F 42.4 °F 63% 29.81 in 10.0 mi Calm Calm - N/A   Clear
10:55 PM 55.0 °F 44.8 °F 68% 29.81 in 10.0 mi Calm Calm - N/A   Clear
11:15 PM 54.5 °F 43.7 °F 67% 29.82 in 10.0 mi Calm Calm - N/A   Clear
11:35 PM 55.4 °F 39.9 °F 56% 29.82 in 10.0 mi Calm Calm - N/A   Clear
11:55 PM 55.0 °F 40.3 °F 58% 29.82 in 10.0 mi Calm Calm - N/A   Clear